EN

Hourly Weather Brojce

Today, 20 April, Tuesday

Time Temperature Precipitation Wind Pressure Humidity
00:00 +9°C° 0.1 mm 1 mps 756 mmHg 90%
01:00 +9°C° 0.1 mm 1 mps 756 mmHg 90%
02:00 +8°C° 0.1 mm 1 mps 756 mmHg 91%
03:00 +8°C° 0.1 mm 1 mps 755 mmHg 92%
04:00 +8°C° 0.1 mm 1 mps 755 mmHg 92%
05:00 +9°C° 0.1 mm 1 mps 755 mmHg 90%
06:00 +10°C° 0.1 mm 1 mps 756 mmHg 88%
07:00 +11°C° 0.1 mm 1 mps 756 mmHg 85%
08:00 +12°C° 0.3 mm 1 mps 755 mmHg 77%
09:00 +14°C° 0.3 mm 1 mps 755 mmHg 69%
10:00 +16°C° 0.3 mm 1 mps 755 mmHg 60%
11:00 +16°C° 0.3 mm 1 mps 755 mmHg 57%
12:00 +17°C° 0.3 mm 2 mps 755 mmHg 53%
13:00 +17°C° 0.3 mm 2 mps 754 mmHg 49%
14:00 +17°C° 0.3 mm 2 mps 754 mmHg 51%
15:00 +17°C° 0.3 mm 2 mps 754 mmHg 53%
16:00 +16°C° 0.3 mm 2 mps 753 mmHg 56%
17:00 +15°C° 0.2 mm 2 mps 753 mmHg 60%
18:00 +14°C° 0.2 mm 2 mps 753 mmHg 65%
19:00 +13°C° 0.2 mm 2 mps 753 mmHg 70%
20:00 +10°C° 0 mm 2 mps 753 mmHg 72%
21:00 +9°C° 0 mm 2 mps 753 mmHg 75%
22:00 +8°C° 0 mm 2 mps 754 mmHg 77%
23:00 +8°C° 0 mm 2 mps 753 mmHg 79%

Tomorrow, 21 April, Wednesday

Time Temperature Precipitation Wind Pressure Humidity
00:00 +7°C° 0 mm 2 mps 753 mmHg 81%
01:00 +7°C° 0 mm 2 mps 753 mmHg 83%
02:00 +6°C° 0 mm 2 mps 753 mmHg 83%
03:00 +5°C° 0 mm 2 mps 753 mmHg 83%
04:00 +5°C° 0 mm 2 mps 753 mmHg 83%
05:00 +6°C° 0 mm 2 mps 753 mmHg 81%
06:00 +5°C° 0 mm 3 mps 753 mmHg 78%
07:00 +7°C° 0 mm 3 mps 754 mmHg 76%
08:00 +9°C° 0 mm 3 mps 753 mmHg 68%
09:00 +11°C° 0 mm 3 mps 753 mmHg 61%
10:00 +13°C° 0 mm 3 mps 753 mmHg 54%
11:00 +14°C° 0 mm 3 mps 753 mmHg 49%
12:00 +15°C° 0 mm 4 mps 753 mmHg 44%
13:00 +17°C° 0 mm 4 mps 752 mmHg 40%
14:00 +15°C° 0 mm 4 mps 752 mmHg 41%
15:00 +16°C° 0 mm 3 mps 752 mmHg 43%
16:00 +16°C° 0 mm 3 mps 752 mmHg 45%
17:00 +13°C° 0 mm 4 mps 752 mmHg 54%
18:00 +11°C° 0 mm 4 mps 752 mmHg 63%
19:00 +9°C° 0 mm 5 mps 752 mmHg 72%
20:00 +8°C° 0.1 mm 4 mps 753 mmHg 75%
21:00 +7°C° 0.1 mm 4 mps 753 mmHg 78%
22:00 +6°C° 0.1 mm 4 mps 753 mmHg 81%
23:00 +5°C° 0 mm 4 mps 753 mmHg 81%

Day after tomorrow, 22 April, Thursday

Time Temperature Precipitation Wind Pressure Humidity
00:00 +4°C° 0 mm 4 mps 753 mmHg 80%
01:00 +3°C° 0 mm 4 mps 754 mmHg 79%
02:00 +3°C° 0 mm 4 mps 754 mmHg 79%
03:00 +1°C° 0 mm 5 mps 754 mmHg 78%
04:00 0°C° 0 mm 5 mps 754 mmHg 78%
05:00 +1°C° 0 mm 5 mps 754 mmHg 76%
06:00 +1°C° 0 mm 5 mps 754 mmHg 73%
07:00 +1°C° 0 mm 5 mps 754 mmHg 71%
08:00 +2°C° 0.1 mm 6 mps 754 mmHg 67%
09:00 +3°C° 0.1 mm 6 mps 754 mmHg 62%
10:00 +4°C° 0.1 mm 7 mps 754 mmHg 58%
11:00 +4°C° 0.3 mm 7 mps 754 mmHg 63%
12:00 +4°C° 0.3 mm 7 mps 754 mmHg 68%
13:00 +4°C° 0.3 mm 6 mps 754 mmHg 74%
14:00 +4°C° 0.5 mm 6 mps 755 mmHg 74%
15:00 +5°C° 0.5 mm 5 mps 755 mmHg 74%
16:00 +6°C° 0.5 mm 4 mps 755 mmHg 75%
17:00 +5°C° 0.3 mm 4 mps 755 mmHg 77%
18:00 +4°C° 0.3 mm 3 mps 755 mmHg 78%
19:00 +4°C° 0.3 mm 2 mps 755 mmHg 80%
20:00 +3°C° 0 mm 3 mps 755 mmHg 81%
21:00 +3°C° 0 mm 3 mps 756 mmHg 83%
22:00 +2°C° 0 mm 3 mps 756 mmHg 84%
23:00 +1°C° 0 mm 4 mps 756 mmHg 83%

23 April, Friday

Time Temperature Precipitation Wind Pressure Humidity
00:00 +1°C° 0 mm 4 mps 756 mmHg 82%
01:00 +1°C° 0 mm 5 mps 756 mmHg 81%
02:00 0°C° 0 mm 5 mps 757 mmHg 82%
03:00 0°C° 0 mm 5 mps 757 mmHg 82%
04:00 0°C° 0 mm 5 mps 757 mmHg 83%
05:00 +1°C° 0 mm 5 mps 758 mmHg 82%
06:00 +1°C° 0 mm 5 mps 758 mmHg 80%
07:00 +2°C° 0 mm 5 mps 759 mmHg 79%
08:00 +3°C° 0 mm 6 mps 759 mmHg 69%
09:00 +5°C° 0 mm 6 mps 759 mmHg 59%
10:00 +8°C° 0 mm 6 mps 760 mmHg 48%
11:00 +8°C° 0 mm 6 mps 760 mmHg 44%
12:00 +9°C° 0 mm 6 mps 760 mmHg 39%
13:00 +10°C° 0 mm 6 mps 760 mmHg 35%
14:00 +10°C° 0 mm 5 mps 760 mmHg 35%
15:00 +10°C° 0 mm 5 mps 760 mmHg 34%
16:00 +10°C° 0 mm 5 mps 760 mmHg 34%
17:00 +10°C° 0 mm 4 mps 760 mmHg 42%
18:00 +9°C° 0 mm 2 mps 760 mmHg 49%
19:00 +9°C° 0 mm 1 mps 760 mmHg 56%
20:00 +7°C° 0 mm 2 mps 760 mmHg 60%
21:00 +7°C° 0 mm 2 mps 760 mmHg 63%
22:00 +5°C° 0 mm 3 mps 760 mmHg 67%
23:00 +5°C° 0 mm 3 mps 760 mmHg 71%

24 April, Saturday

Time Temperature Precipitation Wind Pressure Humidity
00:00 +4°C° 0 mm 3 mps 760 mmHg 76%
01:00 +4°C° 0 mm 3 mps 760 mmHg 80%
02:00 +3°C° 0 mm 3 mps 760 mmHg 84%
03:00 +3°C° 0 mm 3 mps 760 mmHg 87%
04:00 +2°C° 0 mm 3 mps 760 mmHg 91%
05:00 +3°C° 0 mm 4 mps 760 mmHg 87%
06:00 +4°C° 0 mm 4 mps 760 mmHg 84%
07:00 +3°C° 0 mm 5 mps 760 mmHg 80%
08:00 +5°C° 0 mm 5 mps 760 mmHg 73%
09:00 +7°C° 0 mm 5 mps 760 mmHg 65%
10:00 +8°C° 0 mm 6 mps 760 mmHg 58%
11:00 +8°C° 0 mm 6 mps 760 mmHg 56%
12:00 +9°C° 0 mm 6 mps 760 mmHg 55%
13:00 +9°C° 0 mm 6 mps 760 mmHg 53%
14:00 +9°C° 0 mm 5 mps 760 mmHg 54%
15:00 +9°C° 0 mm 5 mps 760 mmHg 55%
16:00 +9°C° 0 mm 5 mps 760 mmHg 57%
17:00 +7°C° 0 mm 4 mps 760 mmHg 61%
18:00 +6°C° 0 mm 4 mps 760 mmHg 66%
19:00 +5°C° 0 mm 3 mps 761 mmHg 70%
20:00 +4°C° 0 mm 3 mps 761 mmHg 70%
21:00 +4°C° 0 mm 2 mps 761 mmHg 69%
22:00 +3°C° 0 mm 2 mps 762 mmHg 69%
23:00 +2°C° 0 mm 2 mps 762 mmHg 67%

25 April, Sunday

Time Temperature Precipitation Wind Pressure Humidity
00:00 +2°C° 0 mm 2 mps 762 mmHg 66%
01:00 +1°C° 0 mm 2 mps 762 mmHg 64%
02:00 +1°C° 0 mm 2 mps 763 mmHg 65%
03:00 -1°C° 0 mm 2 mps 763 mmHg 66%
04:00 -1°C° 0 mm 2 mps 763 mmHg 67%
05:00 +1°C° 0 mm 2 mps 763 mmHg 64%
06:00 +3°C° 0 mm 2 mps 763 mmHg 61%
07:00 +4°C° 0 mm 2 mps 764 mmHg 58%
08:00 +6°C° 0 mm 2 mps 764 mmHg 50%
09:00 +8°C° 0 mm 3 mps 764 mmHg 43%
10:00 +9°C° 0 mm 3 mps 764 mmHg 36%
11:00 +10°C° 0 mm 3 mps 764 mmHg 34%
12:00 +11°C° 0 mm 3 mps 764 mmHg 33%
13:00 +12°C° 0 mm 4 mps 763 mmHg 31%
14:00 +12°C° 0 mm 4 mps 763 mmHg 31%
15:00 +12°C° 0 mm 4 mps 763 mmHg 32%
16:00 +11°C° 0 mm 4 mps 763 mmHg 32%
17:00 +10°C° 0 mm 4 mps 763 mmHg 37%
18:00 +8°C° 0 mm 3 mps 763 mmHg 43%
19:00 +5°C° 0 mm 3 mps 764 mmHg 48%
20:00 +5°C° 0 mm 2 mps 764 mmHg 50%
21:00 +4°C° 0 mm 2 mps 764 mmHg 51%
22:00 +3°C° 0 mm 2 mps 764 mmHg 53%
23:00 +4°C° 0 mm 1 mps 764 mmHg 54%
Show more

We Need Your Consent

Meteoprog and our Service Providers may store and access personal data such as cookies, device identifiers or other similar technologies on your device and process such data to personalise content and ads, as well as provide social media features and to analyse the traffic.

  • Store and/or access information on your device

    Cookies, device identifiers or other information can be stored or accessed on your device for the purposes indicated above.

  • Personalised ads and content, ad and content measurement, audience insights, and products development

    Ads and content can be personalised based on a profile. More data can be added to better personalise ads and content. Ad and content performance can be measured. Insights about the audience who saw the ads and content can be derived. Such data can be used to develop or improve user’s experience, systems and software.

By clicking ‘I Agree’ you will allow the use of indicated cookies, device identifiers, web beacons or other similar technologies. Your settings can be changed in the browser on your device.

For certain purposes, legitimate interests may be relied on, rather than consent. You can read more about this in our Privacy and Cookie Policy.